Waskish, MN

8:25 PM CDT on July 23, 2017 (GMT -0500)
Waskish Municipal

Weather History for KVWU - January, 2013

Change the Weather History Date:

Thursday, January 17, 2013

  Actual Average (KBDE) Record (KBDE)
Temperature  
Mean Temperature -2 °F -  
Max Temperature 6 °F 15 °F 40 °F (1961)
Min Temperature -9 °F -9 °F -41 °F (1970)
Degree Days  
Heating Degree Days 66    
Moisture  
Dew Point -8 °F    
Average Humidity 75    
Maximum Humidity 92    
Minimum Humidity 65    
Precipitation  
Precipitation 0.00 in - - ()
Sea Level Pressure  
Sea Level Pressure 30.26 in    
Wind  
Wind Speed 6 mph (WSW)    
Max Wind Speed 9 mph    
Max Gust Speed -    
Visibility 9 miles    
Events Snow    
Averages and records for this station are not official NWS values.
T = Trace of Precipitation, MM = Missing Value Source: NWS Daily Summary

Daily Weather History Graph

Daily Weather History Graph

Search for Another Location

Airport or City:

Trip Planner

Search our weather history database for the weather conditions in past years. The results will help you decide how hot, cold, wet, or windy it might be!

Date:

Astronomy

Jan. 17, 2013 Rise Set
Actual Time 8:01 AM CST 4:55 PM CST
Civil Twilight 7:26 AM CST 5:30 PM CST
Nautical Twilight 6:48 AM CST 6:08 PM CST
Astronomical Twilight 6:11 AM CST 6:45 PM CST
Moon 10:35 AM CST (1/17) No Moon Set
Length of Visible Light 10h 03m
Length of Day
8h 53m
Waxing Crescent, 38% of the Moon is Illuminated
Jan 17
Waxing Crescent
Jan 18
First Quarter
Jan 26
Full
Feb 3
Last Quarter
Feb 10
New

Hourly Weather History & Observations

Time (CST) Temp. Windchill Dew Point Humidity Pressure Visibility Wind Dir Wind Speed Gust Speed Precip Events Conditions
12:36 AM -7.6 °F -22.1 °F -16.6 °F 65% 30.22 in 10.0 mi West 6.9 mph - N/A   Overcast
12:56 AM -7.6 °F -20.6 °F -16.6 °F 65% 30.23 in 10.0 mi WNW 5.8 mph - N/A   Overcast
1:15 AM -7.6 °F -22.1 °F -16.6 °F 65% 30.23 in 10.0 mi West 6.9 mph - N/A   Overcast
1:36 AM -7.6 °F -22.1 °F -14.8 °F 71% 30.23 in 10.0 mi West 6.9 mph - N/A   Overcast
1:56 AM -7.6 °F -23.4 °F -14.8 °F 71% 30.24 in 10.0 mi West 8.1 mph - N/A   Overcast
2:15 AM -7.6 °F -23.4 °F -14.8 °F 71% 30.24 in 10.0 mi West 8.1 mph - N/A   Overcast
2:36 AM -7.6 °F -20.6 °F -13.0 °F 77% 30.23 in 10.0 mi WSW 5.8 mph - N/A   Overcast
2:56 AM -5.8 °F -21.2 °F -13.0 °F 71% 30.24 in 10.0 mi West 8.1 mph - N/A   Overcast
3:16 AM -5.8 °F -16.7 °F -13.0 °F 71% 30.24 in 10.0 mi West 4.6 mph - N/A   Overcast
3:36 AM -5.8 °F -21.2 °F -13.0 °F 71% 30.24 in 10.0 mi West 8.1 mph - N/A   Overcast
3:56 AM -5.8 °F -18.4 °F -13.0 °F 71% 30.23 in 10.0 mi WSW 5.8 mph - N/A   Overcast
4:15 AM -5.8 °F -18.4 °F -11.2 °F 77% 30.23 in 10.0 mi WSW 5.8 mph - N/A   Overcast
4:36 AM -5.8 °F -19.9 °F -11.2 °F 77% 30.23 in 10.0 mi WSW 6.9 mph - N/A   Overcast
4:56 AM -5.8 °F -18.4 °F -11.2 °F 77% 30.24 in 10.0 mi WSW 5.8 mph - N/A   Overcast
5:16 AM -4.0 °F -14.6 °F -9.4 °F 78% 30.24 in 10.0 mi WSW 4.6 mph - N/A   Overcast
5:36 AM -4.0 °F -16.3 °F -9.4 °F 78% 30.24 in 10.0 mi WSW 5.8 mph - N/A   Overcast
5:56 AM -4.0 °F -14.6 °F -9.4 °F 78% 30.24 in 10.0 mi WSW 4.6 mph - N/A   Overcast
6:16 AM -4.0 °F -16.3 °F -9.4 °F 78% 30.23 in 10.0 mi WSW 5.8 mph - N/A   Overcast
6:36 AM -4.0 °F -17.8 °F -9.4 °F 78% 30.24 in 10.0 mi WSW 6.9 mph - N/A   Overcast
6:56 AM -2.2 °F -14.2 °F -9.4 °F 71% 30.24 in 10.0 mi WSW 5.8 mph - N/A   Overcast
7:16 AM -2.2 °F -14.2 °F -9.4 °F 71% 30.24 in 10.0 mi WSW 5.8 mph - N/A   Overcast
7:36 AM -2.2 °F -12.5 °F -7.6 °F 78% 30.24 in 7.0 mi WSW 4.6 mph - N/A Snow Light Snow
7:56 AM -2.2 °F -10.4 °F -7.6 °F 78% 30.26 in 10.0 mi WSW 3.5 mph - N/A   Overcast
8:16 AM -2.2 °F -10.4 °F -7.6 °F 78% 30.26 in 5.0 mi WSW 3.5 mph - N/A Snow Light Snow
8:36 AM -2.2 °F -10.4 °F -7.6 °F 78% 30.27 in 7.0 mi WSW 3.5 mph - N/A   Overcast
8:55 AM -0.4 °F -8.3 °F -5.8 °F 78% 30.28 in 7.0 mi WSW 3.5 mph - N/A Snow Light Snow
9:16 AM -0.4 °F -10.4 °F -5.8 °F 78% 30.29 in 5.0 mi West 4.6 mph - N/A Snow Light Snow
9:36 AM -0.4 °F -10.4 °F -5.8 °F 78% 30.30 in 5.0 mi WSW 4.6 mph - N/A Snow Light Snow
9:55 AM 1.4 °F -9.9 °F -4.0 °F 78% 30.30 in 5.0 mi WSW 5.8 mph - N/A   Haze
10:16 AM 1.4 °F -11.3 °F -5.8 °F 72% 30.31 in 7.0 mi SW 6.9 mph - N/A   Haze
10:36 AM 1.4 °F -9.9 °F -4.0 °F 78% 30.31 in 5.0 mi WSW 5.8 mph - N/A Snow Light Snow
10:55 AM 1.4 °F -11.3 °F -2.2 °F 85% 30.31 in 7.0 mi West 6.9 mph - N/A   Overcast
11:16 AM 3.2 °F -10.3 °F -2.2 °F 78% 30.31 in 10.0 mi WSW 8.1 mph - N/A   Mostly Cloudy
11:36 AM 3.2 °F -9.1 °F -2.2 °F 78% 30.31 in 10.0 mi WSW 6.9 mph - N/A   Clear
11:55 AM 3.2 °F -9.1 °F -2.2 °F 78% 30.30 in 10.0 mi WSW 6.9 mph - N/A   Clear
12:16 PM 3.2 °F -9.1 °F -2.2 °F 78% 30.31 in 10.0 mi WSW 6.9 mph - N/A   Clear
12:36 PM 5.0 °F -5.6 °F -2.2 °F 72% 30.30 in 10.0 mi WSW 5.8 mph - N/A   Clear
12:55 PM 5.0 °F -5.6 °F -2.2 °F 72% 30.30 in 10.0 mi SW 5.8 mph - N/A   Scattered Clouds
1:16 PM 5.0 °F -5.6 °F -2.2 °F 72% 30.30 in 10.0 mi WSW 5.8 mph - N/A   Scattered Clouds
1:36 PM 6.8 °F -4.8 °F -0.4 °F 72% 30.30 in 10.0 mi SW 6.9 mph - N/A   Mostly Cloudy
1:55 PM 6.8 °F -4.8 °F -0.4 °F 72% 30.30 in 10.0 mi WSW 6.9 mph - N/A   Mostly Cloudy
2:16 PM 6.8 °F -6.9 °F -2.2 °F 67% 30.30 in 10.0 mi WSW 9.2 mph - N/A   Scattered Clouds
2:36 PM 6.8 °F -5.9 °F -2.2 °F 67% 30.30 in 10.0 mi WSW 8.1 mph - N/A   Clear
2:56 PM 6.8 °F -3.5 °F -2.2 °F 67% 30.30 in 10.0 mi WSW 5.8 mph - N/A   Clear
3:16 PM 6.8 °F -4.8 °F -2.2 °F 67% 30.30 in 10.0 mi WSW 6.9 mph - N/A   Clear
3:56 PM 5.0 °F -6.9 °F -4.0 °F 66% 30.30 in 10.0 mi WSW 6.9 mph - N/A   Clear
4:16 PM 3.2 °F -6.2 °F -4.0 °F 72% 30.30 in 10.0 mi WSW 4.6 mph - N/A   Clear
4:36 PM 1.4 °F -9.9 °F -5.8 °F 72% 30.28 in 10.0 mi West 5.8 mph - N/A   Clear
4:56 PM 1.4 °F -9.9 °F -5.8 °F 72% 30.29 in 10.0 mi West 5.8 mph - N/A   Clear
5:16 PM 1.4 °F -11.3 °F -5.8 °F 72% 30.30 in 10.0 mi West 6.9 mph - N/A   Clear
5:35 PM 1.4 °F -11.3 °F -5.8 °F 72% 30.30 in 10.0 mi West 6.9 mph - N/A   Clear
5:56 PM 1.4 °F -9.9 °F -5.8 °F 72% 30.30 in 10.0 mi West 5.8 mph - N/A   Clear
6:16 PM -0.4 °F -10.4 °F -7.6 °F 72% 30.30 in 10.0 mi WNW 4.6 mph - N/A   Clear
6:35 PM -0.4 °F - -7.6 °F 72% 30.29 in 10.0 mi Calm Calm - N/A   Clear
6:56 PM -0.4 °F -8.3 °F -7.6 °F 72% 30.28 in 10.0 mi West 3.5 mph - N/A   Clear
7:16 PM -2.2 °F - -7.6 °F 78% 30.27 in 10.0 mi Calm Calm - N/A   Clear
7:35 PM -5.8 °F - -9.4 °F 84% 30.27 in 10.0 mi Calm Calm - N/A   Clear
7:56 PM -7.6 °F - -11.2 °F 84% 30.26 in 7.0 mi Calm Calm - N/A   Clear
8:16 PM -7.6 °F - -11.2 °F 84% 30.27 in 10.0 mi Calm Calm - N/A   Clear
8:56 PM -9.4 °F - -11.2 °F 92% 30.26 in 10.0 mi Calm Calm - N/A   Clear
9:16 PM -7.6 °F - -9.4 °F 92% 30.25 in 10.0 mi Calm Calm - N/A   Clear
9:35 PM -5.8 °F - -9.4 °F 84% 30.24 in 10.0 mi Calm Calm - N/A   Clear
9:56 PM -2.2 °F - -7.6 °F 78% 30.22 in 10.0 mi Calm Calm - N/A   Scattered Clouds
10:16 PM -2.2 °F - -5.8 °F 85% 30.21 in 10.0 mi Calm Calm - N/A   Scattered Clouds
10:35 PM -2.2 °F - -5.8 °F 85% 30.21 in 10.0 mi Calm Calm - N/A   Scattered Clouds
10:56 PM -0.4 °F - -5.8 °F 78% 30.20 in 10.0 mi Calm Calm - N/A   Mostly Cloudy
11:16 PM -0.4 °F - -5.8 °F 78% 30.19 in 10.0 mi Calm Calm - N/A   Mostly Cloudy
11:35 PM -0.4 °F -8.3 °F -5.8 °F 78% 30.18 in 10.0 mi ESE 3.5 mph - N/A   Overcast
11:56 PM -0.4 °F - -5.8 °F 78% 30.16 in 10.0 mi Calm Calm - N/A   Overcast